Time,TemperatureF,DewpointF,PressureIn,WindDirection,WindDirectionDegrees,WindSpeedMPH,WindSpeedGustMPH,Humidity,HourlyPrecipIn,Conditions,Clouds,dailyrainin,SoftwareType,DateUTC
2013-07-08 00:02:00,70.0,66.0,-100.00,SW,223,0.0,6.0,91,0.00,,,-99.99,,2013-07-08 04:02:00,
2013-07-08 00:12:00,69.0,64.0,-100.00,WSW,247,0.0,6.0,91,0.00,,,-99.99,,2013-07-08 04:12:00,
2013-07-08 00:33:00,69.0,66.0,-100.00,West,265,0.0,6.0,93,0.00,,,-99.99,,2013-07-08 04:33:00,
2013-07-08 00:42:00,69.0,66.0,-100.00,West,265,0.0,6.0,93,0.00,,,-99.99,,2013-07-08 04:42:00,
2013-07-08 00:53:00,69.0,66.0,-100.00,West,261,0.0,6.0,93,0.00,,,-99.99,,2013-07-08 04:53:00,
2013-07-08 01:12:00,70.0,68.0,-100.00,WNW,295,0.0,6.0,94,0.00,,,-99.99,,2013-07-08 05:12:00,
2013-07-08 01:33:00,70.0,68.0,-100.00,WSW,255,0.0,6.0,94,0.00,,,-99.99,,2013-07-08 05:33:00,
2013-07-08 01:43:00,70.0,66.0,-100.00,SW,225,0.0,6.0,94,0.00,,,-99.99,,2013-07-08 05:43:00,
2013-07-08 01:53:00,70.0,68.0,-100.00,NNE,14,0.0,6.0,94,0.00,,,-99.99,,2013-07-08 05:53:00,
2013-07-08 02:01:00,70.0,66.0,-100.00,East,100,0.0,6.0,94,0.00,,,-99.99,,2013-07-08 06:01:00,
2013-07-08 02:12:00,70.0,66.0,-100.00,SSW,206,0.0,6.0,94,0.00,,,-99.99,,2013-07-08 06:12:00,
2013-07-08 02:34:00,69.0,66.0,-100.00,SW,232,0.0,6.0,94,0.00,,,-99.99,,2013-07-08 06:34:00,
2013-07-08 02:43:00,69.0,66.0,-100.00,ENE,74,0.0,6.0,94,0.00,,,-99.99,,2013-07-08 06:43:00,
2013-07-08 02:53:00,68.0,66.0,-100.00,SW,220,0.0,6.0,95,0.00,,,-99.99,,2013-07-08 06:53:00,
2013-07-08 03:02:00,68.0,66.0,-100.00,SW,225,0.0,6.0,95,0.00,,,-99.99,,2013-07-08 07:02:00,
2013-07-08 17:16:00,85.0,70.0,-100.00,West,259,1.0,10.0,64,0.00,,,-99.99,,2013-07-08 21:16:00,
2013-07-08 17:43:00,85.0,72.0,-100.00,WSW,254,1.0,10.0,68,0.00,,,-99.99,,2013-07-08 21:43:00,
2013-07-08 18:55:00,83.0,75.0,-100.00,South,189,0.0,10.0,80,0.00,,,-99.99,,2013-07-08 22:55:00,
2013-07-08 19:01:00,82.0,73.0,-100.00,WNW,290,0.0,10.0,78,0.00,,,-99.99,,2013-07-08 23:01:00,
2013-07-08 19:16:00,82.0,73.0,-100.00,SSW,210,0.0,10.0,78,0.00,,,-99.99,,2013-07-08 23:16:00,
2013-07-08 19:46:00,81.0,73.0,-100.00,SW,235,0.0,10.0,81,0.00,,,-99.99,,2013-07-08 23:46:00,
2013-07-08 19:54:00,81.0,73.0,-100.00,WSW,238,0.0,10.0,81,0.00,,,-99.99,,2013-07-08 23:54:00,
2013-07-08 20:01:00,81.0,73.0,-100.00,WSW,245,1.0,10.0,80,0.00,,,-99.99,,2013-07-09 00:01:00,
2013-07-08 20:17:00,81.0,73.0,-100.00,SW,227,2.0,10.0,80,0.00,,,-99.99,,2013-07-09 00:17:00,
2013-07-08 20:24:00,79.0,72.0,-100.00,West,268,1.0,10.0,80,0.00,,,-99.99,,2013-07-09 00:24:00,
2013-07-08 20:42:00,78.0,70.0,-100.00,NE,50,0.0,10.0,80,0.00,,,-99.99,,2013-07-09 00:42:00,
2013-07-08 20:54:00,78.0,70.0,-100.00,SSW,204,0.0,10.0,80,0.00,,,-99.99,,2013-07-09 00:54:00,
2013-07-08 21:01:00,78.0,70.0,-100.00,WSW,245,0.0,10.0,81,0.00,,,-99.99,,2013-07-09 01:01:00,
2013-07-08 21:44:00,77.0,72.0,-100.00,WNW,300,0.0,10.0,85,8.50,,,-99.99,,2013-07-09 01:44:00,
2013-07-08 21:55:00,72.0,68.0,-100.00,SSE,162,6.0,17.0,93,-99.99,,,-99.99,,2013-07-09 01:55:00,
2013-07-08 22:27:00,-999.0,-99.9,-100.00,ENE,62,1.0,17.0,98,10.20,,,-99.99,,2013-07-09 02:27:00,